Date String (YYYY-MM-DD hh:mm:ss) UTC,Instrument flags,Ambient pressure (hPa),Sample flow (lpm),Bypass flow (lpm),Sample temperature (°C),Ambient temperature (°C),ASC tube jacket temperature (°C),LED temperature (°C),Box temperature (°C),Sample RH (%),Span deviation,Mass concentration (μg/m³),Mass concentration (μg/m³),Mass concentration (μg/m³)
DateTimeUTC,F1_M11,P_M11,Q1_M11,Q2_M11,T1_M11,T2_M11,T3_M11,T4_M11,T5_M11,U1_M11,ZSPAN_M11,X0_M11,X2_M11,X1_M11
2022-09-26 05:00:00,,0834.0,5.01,0.00,30.5,29.0,00.0,39.3,32.3,14.8,0003.1,0013.05,0006.26,0005.65
2022-09-26 05:01:00,,0834.0,4.99,0.00,30.6,29.0,00.0,39.3,32.4,14.8,0003.1,0011.82,0006.24,0005.66
2022-09-26 05:02:00,,0834.0,5.00,0.00,30.6,29.0,00.0,39.3,32.4,14.7,0003.0,0011.83,0006.27,0005.66
2022-09-26 05:03:00,,0834.0,5.00,0.00,30.6,29.1,00.0,39.3,32.4,14.7,0003.3,0011.83,0006.30,0005.67
2022-09-26 05:04:00,,0834.0,4.99,0.00,30.6,29.1,00.0,39.3,32.4,14.7,0003.0,0011.82,0006.31,0005.68
2022-09-26 05:05:00,,0834.0,5.01,0.00,30.6,29.0,00.0,39.3,32.4,14.7,0002.2,0011.33,0006.26,0005.67
2022-09-26 05:06:00,,0834.0,4.99,0.00,30.6,29.1,00.0,39.3,32.4,14.7,0000.7,0011.35,0006.25,0005.67
2022-09-26 05:07:00,,0834.0,5.01,0.00,30.6,29.0,00.0,39.3,32.4,14.7,0000.0,0010.91,0006.27,0005.67
2022-09-26 05:08:00,,0834.0,4.99,0.00,30.6,29.0,00.0,39.3,32.4,14.7,0000.0,0010.56,0006.27,0005.67
2022-09-26 05:09:00,,0834.0,5.01,0.00,30.6,29.0,00.0,39.3,32.4,14.7,0002.9,0010.73,0006.31,0005.68
2022-09-26 05:10:00,,0834.0,4.99,0.00,30.6,29.0,00.0,39.3,32.4,14.7,0002.4,0010.73,0006.30,0005.67
2022-09-26 05:11:00,,0834.0,5.01,0.00,30.6,29.0,00.0,39.4,32.4,14.7,0004.2,0010.63,0006.27,0005.65
2022-09-26 05:12:00,,0834.0,5.01,0.00,30.6,29.0,00.0,39.4,32.4,14.6,0001.1,0010.41,0006.25,0005.66
2022-09-26 05:13:00,,0834.0,4.99,0.00,30.6,29.0,00.0,39.4,32.4,14.7,0000.0,0010.40,0006.26,0005.66
2022-09-26 05:14:00,,0834.0,5.01,0.00,30.6,29.0,00.0,39.4,32.4,14.6,0002.2,0010.27,0006.26,0005.66
2022-09-26 05:15:00,,0834.0,4.99,0.00,30.6,29.0,00.0,39.4,32.4,14.6,0000.0,0010.04,0006.29,0005.66
2022-09-26 05:16:00,,0834.0,5.02,0.00,30.6,29.0,00.0,39.4,32.4,14.6,0000.0,0011.16,0006.35,0005.66
2022-09-26 05:17:00,,0834.0,4.99,0.00,30.6,29.0,00.0,39.4,32.4,14.5,0000.0,0011.73,0006.35,0005.66
2022-09-26 05:18:00,,0833.9,5.01,0.00,30.6,29.0,00.0,39.4,32.4,14.6,0000.0,0012.00,0006.32,0005.66
2022-09-26 05:19:00,,0833.9,4.99,0.00,30.6,29.0,00.0,39.4,32.4,14.6,0000.0,0012.48,0006.26,0005.65
2022-09-26 05:20:00,,0833.9,5.00,0.00,30.6,29.0,00.0,39.4,32.3,14.5,0000.0,0012.85,0006.28,0005.64
2022-09-26 05:21:00,,0833.9,4.99,0.00,30.6,29.0,00.0,39.4,32.3,14.6,0000.0,0013.02,0006.31,0005.66
2022-09-26 05:22:00,,0833.8,5.01,0.00,30.6,29.0,00.0,39.4,32.4,14.6,0000.0,0013.71,0006.32,0005.66
2022-09-26 05:23:00,,0833.9,5.00,0.00,30.6,29.0,00.0,39.4,32.4,14.6,0000.0,0014.19,0006.34,0005.66
2022-09-26 05:24:00,,0833.9,5.00,0.00,30.6,29.0,00.0,39.4,32.3,14.6,0000.0,0014.21,0006.32,0005.67
2022-09-26 05:25:00,,0833.8,5.00,0.00,30.6,28.9,00.0,39.4,32.3,14.6,0000.0,0014.21,0006.29,0005.67
2022-09-26 05:26:00,,0833.9,5.00,0.00,30.6,28.9,00.0,39.4,32.3,14.6,0000.0,0014.42,0006.27,0005.67
2022-09-26 05:27:00,,0833.9,5.01,0.00,30.6,28.9,00.0,39.4,32.4,14.6,0000.0,0014.22,0006.23,0005.68
2022-09-26 05:28:00,,0833.9,4.99,0.00,30.6,29.0,00.0,39.4,32.4,14.6,0000.0,0013.78,0006.21,0005.67
2022-09-26 05:29:00,,0833.9,5.01,0.00,30.6,29.0,00.0,39.4,32.4,14.6,0000.0,0013.41,0006.21,0005.65
2022-09-26 05:30:00,,0833.9,4.99,0.00,30.6,29.0,00.0,39.4,32.4,14.5,0000.0,0013.25,0006.25,0005.66
2022-09-26 05:31:00,,0834.0,5.01,0.00,30.6,29.0,00.0,39.4,32.4,14.5,0000.0,0012.87,0006.25,0005.66
2022-09-26 05:32:00,,0834.0,4.99,0.00,30.6,29.0,00.0,39.4,32.4,14.5,0000.1,0013.05,0006.23,0005.64
2022-09-26 05:33:00,,0833.9,5.01,0.00,30.6,29.0,00.0,39.4,32.4,14.5,0000.9,0012.42,0006.20,0005.63
2022-09-26 05:34:00,,0833.9,4.99,0.00,30.6,29.0,00.0,39.4,32.3,14.5,0000.1,0012.15,0006.19,0005.62
2022-09-26 05:35:00,,0833.8,5.01,0.00,30.6,29.0,00.0,39.4,32.4,14.5,0000.0,0012.23,0006.15,0005.59
2022-09-26 05:36:00,,0833.9,4.99,0.00,30.6,29.0,00.0,39.4,32.4,14.4,0000.0,0012.28,0006.15,0005.57
2022-09-26 05:37:00,,0833.9,5.02,0.00,30.6,29.0,00.0,39.4,32.3,14.4,0000.0,0011.97,0006.13,0005.56
2022-09-26 05:38:00,,0833.9,4.99,0.00,30.6,29.0,00.0,39.4,32.3,14.4,0000.0,0011.22,0006.11,0005.54
2022-09-26 05:39:00,,0833.9,5.01,0.00,30.6,28.9,00.0,39.4,32.3,14.4,0000.0,0010.84,0006.11,0005.52
2022-09-26 05:40:00,,0833.9,4.99,0.00,30.6,28.9,00.0,39.4,32.3,14.5,0000.0,0010.98,0006.10,0005.52
2022-09-26 05:41:00,,0833.9,5.01,0.00,30.6,28.9,00.0,39.4,32.3,14.5,0000.0,0011.41,0006.10,0005.52
2022-09-26 05:42:00,,0833.9,4.99,0.00,30.6,28.9,00.0,39.4,32.4,14.5,0000.0,0011.55,0006.06,0005.50
2022-09-26 05:43:00,,0833.9,5.01,0.00,30.5,28.9,00.0,39.4,32.3,14.5,0000.0,0011.31,0006.02,0005.49
2022-09-26 05:44:00,,0833.9,5.00,0.00,30.5,28.9,00.0,39.4,32.3,14.5,0000.0,0011.11,0005.98,0005.48
2022-09-26 05:45:00,,0833.9,5.01,0.00,30.5,28.9,00.0,39.4,32.4,14.5,0000.0,0011.77,0005.97,0005.48
2022-09-26 05:46:00,,0833.9,5.00,0.00,30.6,28.9,00.0,39.4,32.4,14.5,0000.0,0012.17,0005.97,0005.47
2022-09-26 05:47:00,,0833.8,5.01,0.00,30.6,28.9,00.0,39.4,32.3,14.5,0000.0,0011.92,0005.98,0005.47
2022-09-26 05:48:00,,0833.8,4.99,0.00,30.6,28.9,00.0,39.4,32.3,14.5,0000.0,0011.95,0005.98,0005.47
2022-09-26 05:49:00,,0833.8,5.00,0.00,30.6,29.0,00.0,39.4,32.3,14.5,0000.0,0012.35,0005.99,0005.46
2022-09-26 05:50:00,,0833.8,5.00,0.00,30.6,29.0,00.0,39.4,32.3,14.5,0000.0,0012.70,0006.01,0005.46
2022-09-26 05:51:00,,0833.8,5.00,0.00,30.6,29.0,00.0,39.3,32.3,14.5,0000.0,0012.75,0006.05,0005.47
2022-09-26 05:52:00,,0833.8,5.00,0.00,30.5,28.9,00.0,39.4,32.3,14.5,0000.0,0012.32,0006.05,0005.47
2022-09-26 05:53:00,,0833.9,5.00,0.00,30.5,28.9,00.0,39.4,32.3,14.5,0000.0,0012.02,0006.01,0005.46
2022-09-26 05:54:00,,0833.9,5.01,0.00,30.5,28.9,00.0,39.4,32.3,14.5,0000.0,0012.15,0006.02,0005.46
2022-09-26 05:55:00,,0833.9,4.99,0.00,30.5,28.9,00.0,39.3,32.3,14.5,0000.0,0012.43,0006.06,0005.47
2022-09-26 05:56:00,,0833.9,5.02,0.00,30.5,28.9,00.0,39.3,32.3,14.6,0000.0,0011.94,0006.08,0005.46
2022-09-26 05:57:00,,0833.9,5.00,0.00,30.5,28.9,00.0,39.3,32.3,14.6,0000.0,0011.15,0006.06,0005.47
2022-09-26 05:58:00,,0833.9,4.99,0.00,30.5,28.9,00.0,39.3,32.3,14.6,0000.0,0011.10,0006.07,0005.47
2022-09-26 05:59:00,,0833.9,5.01,0.00,30.5,28.9,00.0,39.4,32.3,14.5,0000.0,0011.27,0006.07,0005.47
